< < Back
Terminal Aerodrome Forecast


Current Version              Previous Versions:   1  2  3  4  5  6  7  8  9  

Terminal Aerodrome Forecast

842
FTUS42 KGSP 292333
TAFAVL
TAF
KAVL 292333Z 3000/3024 34010G20KT P6SM BKN250
     FM300400 35008KT P6SM FEW250
     FM301800 34006KT P6SM SKC=



Latest METAR

441
SAUS70 KWBC 301458
MTRAVL
METAR KAVL 301454Z 36006KT 10SM CLR 12/03 A3010 RMK AO2 SLP184 T01170028
50003


USA.gov is the U.S. government's official web portal to all federal, state and local government web resources and services.